,,Stat5,,Stat1,,Stat2,,Stat3,,Stat4,,Wind1,,Wind1,
time,status,PA1M_AVG,status,PR1M_SUM,status,RH1M_AVG,status,SR1M_AVG,status,TA1M_AVG,status,W1dAve1m,status,W1sAve1m,
2002-06-14, 00:00:01,VALID,917.131,VALID,0,VALID,95.0626,VALID,-0.0339617,VALID,19.7377,VALID,133,VALID,0.098273,
2002-06-14, 00:01:00,VALID,917.131,VALID,0,VALID,95.1262,VALID,-0.0339617,VALID,19.7308,VALID,133,VALID,0.112277,
2002-06-14, 00:02:01,VALID,917.128,VALID,0,VALID,95.1732,VALID,-0.0169808,VALID,19.7377,VALID,133,VALID,0.10455,
2002-06-14, 00:03:00,VALID,917.105,VALID,0,VALID,95.1694,VALID,-0.0679233,VALID,19.731,VALID,133,VALID,0.0632813,
2002-06-14, 00:04:00,VALID,917.088,VALID,0,VALID,95.2178,VALID,-0.0849042,VALID,19.7283,VALID,147,VALID,0.369792,
2002-06-14, 00:05:00,VALID,917.076,VALID,0,VALID,95.1376,VALID,-0.0339617,VALID,19.7022,VALID,146,VALID,0.351339,
2002-06-14, 00:06:00,VALID,917.059,VALID,0,VALID,95.1745,VALID,-0.0679233,VALID,19.7022,VALID,146,VALID,0.375391,
2002-06-14, 00:07:00,VALID,917.056,VALID,0,VALID,95.2114,VALID,-0.0339617,VALID,19.7025,VALID,139,VALID,0.569866,
2002-06-14, 00:08:01,VALID,917.043,VALID,0,VALID,95.2127,VALID,-0.0509425,VALID,19.7216,VALID,138,VALID,0.408548,
2002-06-14, 00:09:00,VALID,917.031,VALID,0,VALID,95.2432,VALID,-0.0849042,VALID,19.7213,VALID,132,VALID,0.520117,
2002-06-14, 00:10:00,VALID,917.016,VALID,0,VALID,95.2851,VALID,-0.0339617,VALID,19.7211,VALID,131,VALID,0.41643,
2002-06-14, 00:11:00,VALID,917.009,VALID,0,VALID,95.3589,VALID,0.0509425,VALID,19.7298,VALID,131,VALID,0.5,
2002-06-14, 00:12:00,VALID,917.004,VALID,0,VALID,95.411,VALID,0.0339617,VALID,19.733,VALID,131,VALID,0.21543,
2002-06-14, 00:13:00,VALID,916.988,VALID,0,VALID,95.3932,VALID,-0.0169808,VALID,19.7432,VALID,129,VALID,0.356473,
2002-06-14, 00:14:01,VALID,916.992,VALID,0,VALID,95.4199,VALID,-0.0509425,VALID,19.7213,VALID,128,VALID,0.159926,
2002-06-14, 00:15:00,VALID,916.983,VALID,0,VALID,95.364,VALID,-0.0679233,VALID,19.7084,VALID,124,VALID,0.0576172,
2002-06-14, 00:16:00,VALID,916.984,VALID,0,VALID,95.2368,VALID,-0.0679233,VALID,19.6826,VALID,120,VALID,0.234375,
2002-06-14, 00:17:00,VALID,916.97,VALID,0,VALID,95.3284,VALID,-0.0169808,VALID,19.6632,VALID,103,VALID,0.47433,
2002-06-14, 00:18:00,VALID,916.946,VALID,0,VALID,95.5929,VALID,-0.0339617,VALID,19.6465,VALID,100,VALID,0.4625,
2002-06-14, 00:19:00,VALID,916.923,VALID,0,VALID,95.6959,VALID,-0.0169808,VALID,19.6277,VALID,100,VALID,0.314955,
2002-06-14, 00:20:01,VALID,916.893,VALID,0,VALID,95.823,VALID,-0.0679233,VALID,19.618,VALID,100,VALID,0.0762868,
2002-06-14, 00:21:00,VALID,916.89,VALID,0,VALID,95.9133,VALID,-0.0339617,VALID,19.6185,VALID,100,VALID,0.0207031,
2002-06-14, 00:22:00,VALID,916.863,VALID,0,VALID,95.9744,VALID,-0.0849042,VALID,19.609,VALID,105,VALID,0.0885417,
2002-06-14, 00:23:00,VALID,916.857,VALID,0,VALID,96.0112,VALID,-0.0509425,VALID,19.6122,VALID,140,VALID,0.352232,
2002-06-14, 00:24:00,VALID,916.847,VALID,0,VALID,95.9744,VALID,-0.0679233,VALID,19.5956,VALID,128,VALID,0.383984,
2002-06-14, 00:25:00,VALID,916.839,VALID,0,VALID,96.0964,VALID,0.0169808,VALID,19.5785,VALID,123,VALID,0.494866,
2002-06-14, 00:26:01,VALID,916.853,VALID,0,VALID,96.0863,VALID,0.0509425,VALID,19.5745,VALID,113,VALID,0.90602,
2002-06-14, 00:27:00,VALID,916.85,VALID,0,VALID,96.1854,VALID,0.0339617,VALID,19.5653,VALID,96,VALID,0.918359,
2002-06-14, 00:28:00,VALID,916.826,VALID,0,VALID,96.2528,VALID,0.0169808,VALID,19.5422,VALID,100,VALID,0.841146,
2002-06-14, 00:29:00,VALID,916.831,VALID,0,VALID,96.1905,VALID,0.0509425,VALID,19.5327,VALID,90,VALID,0.682366,
2002-06-14, 00:30:00,VALID,916.835,VALID,0,VALID,96.1333,VALID,0.0679233,VALID,19.5069,VALID,82,VALID,0.905664,
2002-06-14, 00:31:01,VALID,916.823,VALID,0,VALID,96.3075,VALID,0.0509425,VALID,19.4781,VALID,85,VALID,1.1558,
2002-06-14, 00:32:01,VALID,916.813,VALID,0,VALID,96.5199,VALID,0.0679233,VALID,19.4808,VALID,92,VALID,1.25735,
2002-06-14, 00:33:00,VALID,916.805,VALID,0,VALID,96.5135,VALID,0.0339617,VALID,19.4937,VALID,100,VALID,1.02461,
2002-06-14, 00:34:00,VALID,916.802,VALID,0,VALID,96.4321,VALID,0.0339617,VALID,19.5101,VALID,93,VALID,0.930398,
2002-06-14, 00:35:00,VALID,916.801,VALID,0,VALID,96.2477,VALID,0.0679233,VALID,19.5196,VALID,89,VALID,0.8375,
2002-06-14, 00:36:00,VALID,916.804,VALID,0,VALID,96.1231,VALID,0.0339617,VALID,19.5298,VALID,97,VALID,0.780664,
2002-06-14, 00:37:01,VALID,916.796,VALID,0,VALID,96.0201,VALID,0.0509425,VALID,19.5392,VALID,100,VALID,0.726339,
2002-06-14, 00:38:01,VALID,916.797,VALID,0,VALID,96.0799,VALID,0.0509425,VALID,19.5556,VALID,145,VALID,0.931756,
2002-06-14, 00:39:00,VALID,916.762,VALID,0,VALID,96.1969,VALID,0.0849042,VALID,19.5551,VALID,141,VALID,0.894531,
2002-06-14, 00:40:01,VALID,916.758,VALID,0,VALID,96.2592,VALID,0.0339617,VALID,19.5787,VALID,131,VALID,0.660275,
2002-06-14, 00:41:01,VALID,916.75,VALID,0,VALID,96.2872,VALID,0.101885,VALID,19.5685,VALID,111,VALID,0.601116,
2002-06-14, 00:42:01,VALID,916.736,VALID,0,VALID,96.2503,VALID,0.0339617,VALID,19.5591,VALID,119,VALID,0.686523,
2002-06-14, 00:43:01,VALID,916.728,VALID,0,VALID,96.1219,VALID,0.0849042,VALID,19.5355,VALID,118,VALID,0.785714,
2002-06-14, 00:44:01,VALID,916.718,VALID,0,VALID,96.0303,VALID,0.0509425,VALID,19.5461,VALID,130,VALID,0.664522,
2002-06-14, 00:45:01,VALID,916.706,VALID,0,VALID,96.0468,VALID,0.0509425,VALID,19.5228,VALID,129,VALID,0.398828,
2002-06-14, 00:46:01,VALID,916.693,VALID,0,VALID,95.9464,VALID,0.0679233,VALID,19.5198,VALID,133,VALID,0.627841,
2002-06-14, 00:47:01,VALID,916.693,VALID,0,VALID,95.8599,VALID,0.0339617,VALID,19.5369,VALID,123,VALID,0.627902,
2002-06-14, 00:48:01,VALID,916.682,VALID,0,VALID,95.7518,VALID,0.0339617,VALID,19.5071,VALID,121,VALID,0.662109,
2002-06-14, 00:49:01,VALID,916.671,VALID,0,VALID,95.6539,VALID,0.0339617,VALID,19.5004,VALID,126,VALID,0.596652,
2002-06-14, 00:50:01,VALID,916.652,VALID,0,VALID,95.5051,VALID,0.0509425,VALID,19.5101,VALID,130,VALID,0.65671,
2002-06-14, 00:51:01,VALID,916.62,VALID,0,VALID,95.378,VALID,0.0339617,VALID,19.5134,VALID,139,VALID,0.72168,
2002-06-14, 00:52:01,VALID,916.601,VALID,0,VALID,95.1949,VALID,0.0339617,VALID,19.5233,VALID,124,VALID,0.665009,
2002-06-14, 00:53:01,VALID,916.566,VALID,0,VALID,95.1834,VALID,0.0509425,VALID,19.5397,VALID,145,VALID,0.801562,
2002-06-14, 00:54:01,VALID,916.553,VALID,0,VALID,95.1987,VALID,0.0339617,VALID,19.572,VALID,135,VALID,0.777148,
2002-06-14, 00:55:01,VALID,916.525,VALID,0,VALID,95.2534,VALID,0.0339617,VALID,19.5655,VALID,141,VALID,0.87567,
2002-06-14, 00:56:01,VALID,916.525,VALID,0,VALID,95.2406,VALID,-0.0679233,VALID,19.5762,VALID,146,VALID,0.834329,
2002-06-14, 00:57:01,VALID,916.52,VALID,0,VALID,95.2712,VALID,-0.0509425,VALID,19.5762,VALID,133,VALID,0.804688,
2002-06-14, 00:58:01,VALID,916.506,VALID,0,VALID,95.2928,VALID,-0.0679233,VALID,19.5797,VALID,138,VALID,0.6759,
2002-06-14, 00:59:01,VALID,916.515,VALID,0,VALID,95.3017,VALID,-0.0509425,VALID,19.5765,VALID,140,VALID,0.425,
2002-06-14, 01:00:01,VALID,916.503,VALID,0,VALID,95.2762,VALID,-0.0849042,VALID,19.567,VALID,118,VALID,0.594727,
2002-06-14, 01:01:01,VALID,916.511,VALID,0,VALID,95.2699,VALID,-0.0339617,VALID,19.5469,VALID,117,VALID,0.47567,
2002-06-14, 01:02:01,VALID,916.522,VALID,0,VALID,95.191,VALID,-0.0679233,VALID,19.5474,VALID,117,VALID,0.390165,
2002-06-14, 01:03:00,VALID,916.523,VALID,0,VALID,95.1109,VALID,-0.0339617,VALID,19.5513,VALID,131,VALID,0.530469,
2002-06-14, 01:04:00,VALID,916.518,VALID,0,VALID,95.0677,VALID,-0.0169808,VALID,19.5312,VALID,109,VALID,0.548295,
2002-06-14, 01:05:00,VALID,916.52,VALID,0,VALID,94.9367,VALID,-0.0169808,VALID,19.528,VALID,127,VALID,0.516071,
2002-06-14, 01:06:00,VALID,916.517,VALID,0,VALID,94.9011,VALID,-0.0509425,VALID,19.5379,VALID,129,VALID,0.308398,
2002-06-14, 01:07:00,VALID,916.505,VALID,0,VALID,94.8935,VALID,-0.0339617,VALID,19.5509,VALID,125,VALID,0.576563,
2002-06-14, 01:08:00,VALID,916.5,VALID,0,VALID,94.8541,VALID,-0.0849042,VALID,19.5643,VALID,120,VALID,0.480239,
2002-06-14, 01:09:00,VALID,916.488,VALID,0,VALID,94.8833,VALID,-0.0679233,VALID,19.5543,VALID,126,VALID,0.663086,
2002-06-14, 01:10:00,VALID,916.484,VALID,0,VALID,94.8159,VALID,-0.0339617,VALID,19.573,VALID,124,VALID,0.638494,
2002-06-14, 01:11:00,VALID,916.475,VALID,0,VALID,94.7155,VALID,0.0679233,VALID,19.575,VALID,120,VALID,0.578125,
2002-06-14, 01:12:00,VALID,916.458,VALID,0,VALID,94.601,VALID,0.0339617,VALID,19.5884,VALID,110,VALID,0.633203,
2002-06-14, 01:13:00,VALID,916.446,VALID,0,VALID,94.5514,VALID,0.0509425,VALID,19.5949,VALID,111,VALID,0.627009,
2002-06-14, 01:14:00,VALID,916.424,VALID,0,VALID,94.4268,VALID,0.0169808,VALID,19.6078,VALID,103,VALID,0.439108,
2002-06-14, 01:15:00,VALID,916.421,VALID,0,VALID,94.3836,VALID,0.0339617,VALID,19.6105,VALID,94,VALID,0.638086,
2002-06-14, 01:16:00,VALID,916.374,VALID,0,VALID,94.3009,VALID,0.0169808,VALID,19.617,VALID,94,VALID,0.836648,
2002-06-14, 01:17:00,VALID,916.357,VALID,0,VALID,94.2068,VALID,0,VALID,19.6463,VALID,95,VALID,0.647098,
2002-06-14, 01:18:00,VALID,916.321,VALID,0,VALID,94.0873,VALID,0.0509425,VALID,19.6689,VALID,92,VALID,0.761523,
2002-06-14, 01:19:00,VALID,916.323,VALID,0,VALID,93.9016,VALID,0.0169808,VALID,19.6689,VALID,98,VALID,0.623884,
2002-06-14, 01:20:00,VALID,916.294,VALID,0,VALID,93.8012,VALID,0,VALID,19.6821,VALID,95,VALID,0.542509,
2002-06-14, 01:21:00,VALID,916.282,VALID,0,VALID,93.8164,VALID,0.0169808,VALID,19.6786,VALID,92,VALID,0.599805,
2002-06-14, 01:22:00,VALID,916.277,VALID,0,VALID,93.8826,VALID,0.0169808,VALID,19.6759,VALID,88,VALID,0.65767,
2002-06-14, 01:23:00,VALID,916.248,VALID,0,VALID,93.847,VALID,0,VALID,19.66,VALID,87,VALID,0.732813,
2002-06-14, 01:24:00,VALID,916.241,VALID,0,VALID,94.0085,VALID,0.0169808,VALID,19.6237,VALID,92,VALID,0.692969,
2002-06-14, 01:25:00,VALID,916.235,VALID,0,VALID,94.2501,VALID,-0.0169808,VALID,19.615,VALID,104,VALID,0.776116,
2002-06-14, 01:26:00,VALID,916.218,VALID,0,VALID,94.3416,VALID,-0.101885,VALID,19.5966,VALID,85,VALID,0.755744,
2002-06-14, 01:27:00,VALID,916.223,VALID,0,VALID,94.3543,VALID,-0.118866,VALID,19.5904,VALID,76,VALID,0.712305,
2002-06-14, 01:28:00,VALID,916.212,VALID,0,VALID,94.5794,VALID,-0.0849042,VALID,19.5414,VALID,81,VALID,0.732244,
2002-06-14, 01:29:00,VALID,916.213,VALID,0,VALID,94.7625,VALID,-0.0679233,VALID,19.5255,VALID,74,VALID,0.704241,
2002-06-14, 01:30:00,VALID,916.198,VALID,0,VALID,94.9787,VALID,-0.0679233,VALID,19.5021,VALID,88,VALID,0.743945,
2002-06-14, 01:31:00,VALID,916.19,VALID,0,VALID,95.2012,VALID,-0.101885,VALID,19.4733,VALID,91,VALID,0.685045,
2002-06-14, 01:32:00,VALID,916.188,VALID,0,VALID,95.3754,VALID,-0.0679233,VALID,19.4666,VALID,86,VALID,0.643153,
2002-06-14, 01:33:00,VALID,916.177,VALID,0,VALID,95.6285,VALID,-0.0679233,VALID,19.4373,VALID,103,VALID,0.598307,
2002-06-14, 01:34:00,VALID,916.154,VALID,0,VALID,95.6908,VALID,-0.0849042,VALID,19.4348,VALID,108,VALID,0.498343,
2002-06-14, 01:35:00,VALID,916.138,VALID,0,VALID,95.8599,VALID,-0.0679233,VALID,19.4144,VALID,120,VALID,0.373214,
2002-06-14, 01:36:00,VALID,916.13,VALID,0,VALID,95.9667,VALID,-0.0849042,VALID,19.4152,VALID,124,VALID,0.346094,
2002-06-14, 01:37:00,VALID,916.138,VALID,0,VALID,96.1473,VALID,-0.0679233,VALID,19.4219,VALID,140,VALID,0.329464,
2002-06-14, 01:38:00,VALID,916.132,VALID,0,VALID,96.3469,VALID,-0.0679233,VALID,19.4154,VALID,140,VALID,0.622702,
2002-06-14, 01:39:00,VALID,916.135,VALID,0,VALID,96.4894,VALID,-0.0849042,VALID,19.4189,VALID,142,VALID,0.550586,
2002-06-14, 01:40:00,VALID,916.132,VALID,0,VALID,96.5822,VALID,-0.0509425,VALID,19.4214,VALID,150,VALID,0.400568,
2002-06-14, 01:41:00,VALID,916.142,VALID,0,VALID,96.7119,VALID,0.0169808,VALID,19.3976,VALID,138,VALID,0.530357,
2002-06-14, 01:42:00,VALID,916.136,VALID,0,VALID,96.839,VALID,0.0679233,VALID,19.3911,VALID,137,VALID,0.625,
2002-06-14, 01:43:00,VALID,916.12,VALID,0,VALID,96.9611,VALID,0.0169808,VALID,19.3814,VALID,128,VALID,0.687277,
2002-06-14, 01:44:00,VALID,916.126,VALID,0,VALID,97.0679,VALID,0,VALID,19.372,VALID,127,VALID,0.706572,
2002-06-14, 01:45:00,VALID,916.11,VALID,0,VALID,97.1557,VALID,0,VALID,19.356,VALID,122,VALID,0.610742,
2002-06-14, 01:46:00,VALID,916.116,VALID,0,VALID,97.2205,VALID,0,VALID,19.3362,VALID,117,VALID,0.659801,
2002-06-14, 01:47:00,VALID,916.098,VALID,0,VALID,97.246,VALID,0,VALID,19.3235,VALID,114,VALID,0.511384,
2002-06-14, 01:48:00,VALID,916.095,VALID,0,VALID,97.2638,VALID,0,VALID,19.3078,VALID,115,VALID,0.550977,
2002-06-14, 01:49:00,VALID,916.088,VALID,0,VALID,97.176,VALID,0,VALID,19.285,VALID,108,VALID,0.627009,
2002-06-14, 01:50:00,VALID,916.096,VALID,0,VALID,97.0463,VALID,0,VALID,19.2587,VALID,113,VALID,0.61466,
2002-06-14, 01:51:00,VALID,916.071,VALID,0,VALID,96.7882,VALID,0,VALID,19.2497,VALID,115,VALID,0.756836,
2002-06-14, 01:52:00,VALID,916.075,VALID,0,VALID,96.53,VALID,0,VALID,19.2457,VALID,102,VALID,0.779593,
2002-06-14, 01:53:00,VALID,916.071,VALID,0,VALID,96.2274,VALID,0.0169808,VALID,19.236,VALID,93,VALID,0.655804,
2002-06-14, 01:54:00,VALID,916.063,VALID,0,VALID,95.8586,VALID,0,VALID,19.246,VALID,98,VALID,0.630664,
2002-06-14, 01:55:00,VALID,916.061,VALID,0,VALID,95.5509,VALID,0,VALID,19.2755,VALID,80,VALID,0.622098,
2002-06-14, 01:56:00,VALID,916.064,VALID,0,VALID,95.2737,VALID,0.0169808,VALID,19.2847,VALID,80,VALID,0.300551,
2002-06-14, 01:57:00,VALID,916.056,VALID,0,VALID,95.102,VALID,0,VALID,19.324,VALID,60,VALID,0.477344,
2002-06-14, 01:58:00,VALID,916.051,VALID,0,VALID,94.9609,VALID,-0.0339617,VALID,19.3468,VALID,35,VALID,0.577652,
2002-06-14, 01:59:00,VALID,916.053,VALID,0,VALID,94.9418,VALID,-0.0169808,VALID,19.3404,VALID,32,VALID,0.650223,
2002-06-14, 02:00:00,VALID,916.056,VALID,0,VALID,94.8668,VALID,0,VALID,19.3173,VALID,40,VALID,0.7375,
2002-06-14, 02:01:00,VALID,916.043,VALID,0,VALID,94.7956,VALID,0,VALID,19.2979,VALID,54,VALID,0.737277,
2002-06-14, 02:02:00,VALID,916.05,VALID,0,VALID,94.7396,VALID,0,VALID,19.2852,VALID,69,VALID,0.764936,
2002-06-14, 02:03:00,VALID,916.038,VALID,0,VALID,94.5145,VALID,0,VALID,19.2919,VALID,80,VALID,0.869922,
2002-06-14, 02:04:00,VALID,916.027,VALID,0,VALID,94.3899,VALID,0,VALID,19.2755,VALID,97,VALID,0.940578,
2002-06-14, 02:05:00,VALID,916.04,VALID,0,VALID,94.3658,VALID,0,VALID,19.2885,VALID,96,VALID,0.847545,
2002-06-14, 02:06:00,VALID,916.037,VALID,0,VALID,94.2984,VALID,0,VALID,19.2825,VALID,103,VALID,0.785547,
2002-06-14, 02:07:00,VALID,916.019,VALID,0,VALID,94.1216,VALID,-0.0169808,VALID,19.2688,VALID,106,VALID,0.689955,
2002-06-14, 02:08:00,VALID,916.021,VALID,0,VALID,93.9309,VALID,0.0169808,VALID,19.2986,VALID,100,VALID,0.856618,
2002-06-14, 02:09:00,VALID,916.02,VALID,0,VALID,93.88,VALID,0.0339617,VALID,19.3076,VALID,101,VALID,0.473047,
2002-06-14, 02:10:00,VALID,916.01,VALID,0,VALID,93.983,VALID,0.0169808,VALID,19.3334,VALID,101,VALID,0.120502,
2002-06-14, 02:11:00,VALID,916.011,VALID,0,VALID,93.8597,VALID,0.0509425,VALID,19.3516,VALID,95,VALID,0.403125,
2002-06-14, 02:12:00,VALID,916.022,VALID,0,VALID,93.7516,VALID,0.101885,VALID,19.3514,VALID,98,VALID,0.217383,
2002-06-14, 02:13:00,VALID,916.018,VALID,0,VALID,93.8559,VALID,0.101885,VALID,19.3618,VALID,98,VALID,0.0946429,
2002-06-14, 02:14:00,VALID,916.02,VALID,0,VALID,93.8444,VALID,0.0849042,VALID,19.3514,VALID,108,VALID,0.302619,
2002-06-14, 02:15:00,VALID,916.031,VALID,0,VALID,93.8546,VALID,0.0509425,VALID,19.3648,VALID,133,VALID,0.427539,
2002-06-14, 02:16:00,VALID,916.038,VALID,0,VALID,93.8393,VALID,0.0849042,VALID,19.3715,VALID,133,VALID,0.475852,
2002-06-14, 02:17:00,VALID,916.028,VALID,0,VALID,93.6715,VALID,0.118866,VALID,19.3643,VALID,133,VALID,0.335268,
2002-06-14, 02:18:00,VALID,916.039,VALID,0,VALID,93.6982,VALID,0.0849042,VALID,19.364,VALID,129,VALID,0.0791016,
2002-06-14, 02:19:00,VALID,916.023,VALID,0,VALID,93.6473,VALID,0.0679233,VALID,19.374,VALID,107,VALID,0.270089,
2002-06-14, 02:20:00,VALID,916.009,VALID,0,VALID,93.5214,VALID,0.101885,VALID,19.3645,VALID,104,VALID,0.28102,
2002-06-14, 02:21:00,VALID,915.991,VALID,0,VALID,93.6524,VALID,0.0679233,VALID,19.371,VALID,98,VALID,0.293359,
2002-06-14, 02:22:00,VALID,915.968,VALID,0,VALID,93.9678,VALID,0.101885,VALID,19.368,VALID,74,VALID,0.334044,
2002-06-14, 02:23:00,VALID,915.966,VALID,0,VALID,94.1038,VALID,0.0849042,VALID,19.3489,VALID,73,VALID,0.460491,
2002-06-14, 02:24:00,VALID,915.964,VALID,0,VALID,94.2501,VALID,0.101885,VALID,19.3126,VALID,73,VALID,0.463672,
2002-06-14, 02:25:00,VALID,915.953,VALID,0,VALID,94.2997,VALID,0.0339617,VALID,19.2877,VALID,73,VALID,0.495313,
2002-06-14, 02:26:00,VALID,915.953,VALID,0,VALID,94.3454,VALID,-0.0339617,VALID,19.2562,VALID,81,VALID,0.546645,
2002-06-14, 02:27:00,VALID,915.932,VALID,0,VALID,94.3861,VALID,-0.0169808,VALID,19.2465,VALID,93,VALID,0.518359,
2002-06-14, 02:28:00,VALID,915.935,VALID,0,VALID,94.4141,VALID,0,VALID,19.2497,VALID,93,VALID,0.541903,
2002-06-14, 02:29:00,VALID,915.928,VALID,0,VALID,94.2755,VALID,-0.0169808,VALID,19.2465,VALID,93,VALID,0.482589,
2002-06-14, 02:30:00,VALID,915.923,VALID,0,VALID,94.0568,VALID,0,VALID,19.2497,VALID,93,VALID,0.457617,
2002-06-14, 02:31:00,VALID,915.909,VALID,0,VALID,93.9461,VALID,0,VALID,19.2492,VALID,93,VALID,0.314063,
2002-06-14, 02:32:00,VALID,915.896,VALID,0,VALID,94.0937,VALID,-0.0169808,VALID,19.2892,VALID,93,VALID,0.0128676,
2002-06-14, 02:33:00,VALID,915.892,VALID,0,VALID,94.2081,VALID,-0.0169808,VALID,19.2885,VALID,92,VALID,0.000195313,
2002-06-14, 02:34:00,VALID,915.885,VALID,0,VALID,94.2895,VALID,-0.0169808,VALID,19.3113,VALID,63,VALID,0.276515,
2002-06-14, 02:35:00,VALID,915.879,VALID,0,VALID,94.3823,VALID,0,VALID,19.2984,VALID,28,VALID,0.468973,
2002-06-14, 02:36:00,VALID,915.852,VALID,0,VALID,94.367,VALID,0,VALID,19.2629,VALID,27,VALID,0.409961,
2002-06-14, 02:37:00,VALID,915.848,VALID,0,VALID,94.5451,VALID,0,VALID,19.2146,VALID,29,VALID,0.461607,
2002-06-14, 02:38:00,VALID,915.828,VALID,0,VALID,94.6697,VALID,-0.0169808,VALID,19.1819,VALID,47,VALID,0.524816,
2002-06-14, 02:39:00,VALID,915.822,VALID,0,VALID,94.7612,VALID,0,VALID,19.1302,VALID,73,VALID,0.58418,
2002-06-14, 02:40:00,VALID,915.823,VALID,0,VALID,95.0308,VALID,-0.0339617,VALID,19.1073,VALID,91,VALID,0.703362,
2002-06-14, 02:41:00,VALID,915.812,VALID,0,VALID,95.191,VALID,0,VALID,19.0783,VALID,96,VALID,0.709152,
2002-06-14, 02:42:00,VALID,915.811,VALID,0,VALID,95.3996,VALID,-0.0169808,VALID,19.0753,VALID,95,VALID,0.557031,
2002-06-14, 02:43:00,VALID,915.803,VALID,0,VALID,95.5725,VALID,-0.0339617,VALID,19.075,VALID,65,VALID,0.418527,
2002-06-14, 02:44:00,VALID,915.798,VALID,0,VALID,95.3742,VALID,0,VALID,19.0524,VALID,65,VALID,0.398897,
2002-06-14, 02:45:00,VALID,915.8,VALID,0,VALID,95.3055,VALID,0,VALID,19.0169,VALID,64,VALID,0.0544922,
2002-06-14, 02:46:00,VALID,915.812,VALID,0,VALID,95.2737,VALID,0,VALID,18.9943,VALID,64,VALID,0.149621,
2002-06-14, 02:47:00,VALID,915.802,VALID,0,VALID,95.3843,VALID,0,VALID,18.9846,VALID,64,VALID,0.0723214,
2002-06-14, 02:48:00,VALID,915.807,VALID,0,VALID,95.4962,VALID,0.0169808,VALID,19.0042,VALID,64,VALID,0.0261719,
2002-06-14, 02:49:00,VALID,915.817,VALID,0,VALID,95.556,VALID,0,VALID,19.0204,VALID,64,VALID,0.0691964,
2002-06-14, 02:50:00,VALID,915.808,VALID,0,VALID,95.5369,VALID,-0.0169808,VALID,19.0273,VALID,64,VALID,0.116268,
2002-06-14, 02:51:00,VALID,915.811,VALID,0,VALID,95.5509,VALID,0,VALID,19.0233,VALID,64,VALID,0.009375,
2002-06-14, 02:52:00,VALID,915.829,VALID,0,VALID,95.5344,VALID,0,VALID,19.0139,VALID,64,VALID,0,
2002-06-14, 02:53:00,VALID,915.839,VALID,0,VALID,95.5522,VALID,-0.0339617,VALID,19.004,VALID,64,VALID,0,
2002-06-14, 02:54:00,VALID,915.845,VALID,0,VALID,95.6348,VALID,-0.0169808,VALID,19.0042,VALID,63,VALID,0,
2002-06-14, 02:55:00,VALID,915.844,VALID,0,VALID,95.7073,VALID,0,VALID,19.0104,VALID,62,VALID,0,
2002-06-14, 02:56:00,VALID,915.876,VALID,0,VALID,95.7327,VALID,0,VALID,19.0042,VALID,60,VALID,0.0689338,
2002-06-14, 02:57:00,VALID,915.873,VALID,0,VALID,95.7048,VALID,0,VALID,18.9913,VALID,51,VALID,0.383789,
2002-06-14, 02:58:00,VALID,915.873,VALID,0,VALID,95.6717,VALID,-0.0339617,VALID,18.9523,VALID,42,VALID,0.287642,
2002-06-14, 02:59:00,VALID,915.884,VALID,0,VALID,95.7887,VALID,0,VALID,18.9463,VALID,42,VALID,0.127902,
2002-06-14, 03:00:00,VALID,915.883,VALID,0,VALID,95.9349,VALID,-0.0169808,VALID,18.9426,VALID,42,VALID,0,
2002-06-14, 03:01:00,VALID,915.874,VALID,0,VALID,95.8624,VALID,0,VALID,18.9396,VALID,42,VALID,0.00133929,
2002-06-14, 03:02:00,VALID,915.87,VALID,0,VALID,95.8663,VALID,0,VALID,18.9269,VALID,42,VALID,0.0186121,
2002-06-14, 03:03:00,VALID,915.859,VALID,0,VALID,95.8548,VALID,0,VALID,18.8941,VALID,42,VALID,0.0261719,
2002-06-14, 03:04:00,VALID,915.866,VALID,0,VALID,95.8942,VALID,0,VALID,18.8817,VALID,41,VALID,0.0106534,
2002-06-14, 03:05:00,VALID,915.868,VALID,0,VALID,95.8841,VALID,0,VALID,18.869,VALID,41,VALID,0,
2002-06-14, 03:06:00,VALID,915.862,VALID,0,VALID,95.8561,VALID,0,VALID,18.8519,VALID,41,VALID,0,
2002-06-14, 03:07:00,VALID,915.872,VALID,0,VALID,95.7887,VALID,0,VALID,18.8459,VALID,41,VALID,0,
2002-06-14, 03:08:00,VALID,915.868,VALID,0,VALID,95.8116,VALID,0.0169808,VALID,18.8464,VALID,41,VALID,0,
2002-06-14, 03:09:00,VALID,915.863,VALID,0,VALID,95.879,VALID,-0.0169808,VALID,18.8425,VALID,41,VALID,0,
2002-06-14, 03:10:00,VALID,915.86,VALID,0,VALID,95.8637,VALID,-0.0169808,VALID,18.8494,VALID,41,VALID,0,
2002-06-14, 03:11:00,VALID,915.858,VALID,0,VALID,95.7595,VALID,-0.0679233,VALID,18.8605,VALID,41,VALID,0,
2002-06-14, 03:12:00,VALID,915.828,VALID,0,VALID,95.5674,VALID,-0.101885,VALID,18.8642,VALID,58,VALID,0.0759766,
2002-06-14, 03:13:00,VALID,915.832,VALID,0,VALID,95.3907,VALID,-0.101885,VALID,18.8384,VALID,140,VALID,0.493973,
2002-06-14, 03:14:00,VALID,915.813,VALID,0,VALID,95.4314,VALID,-0.0849042,VALID,18.8183,VALID,147,VALID,0.498162,
2002-06-14, 03:15:00,VALID,915.794,VALID,0,VALID,95.5407,VALID,-0.101885,VALID,18.7857,VALID,153,VALID,0.293555,
2002-06-14, 03:16:00,VALID,915.792,VALID,0,VALID,95.7747,VALID,-0.0849042,VALID,18.8088,VALID,163,VALID,0.745975,
2002-06-14, 03:17:00,VALID,915.776,VALID,0,VALID,95.9235,VALID,-0.0849042,VALID,18.8058,VALID,165,VALID,0.641964,
2002-06-14, 03:18:00,VALID,915.78,VALID,0,VALID,95.9922,VALID,-0.101885,VALID,18.7892,VALID,152,VALID,0.389062,
2002-06-14, 03:19:00,VALID,915.776,VALID,0,VALID,96.0367,VALID,-0.0849042,VALID,18.7631,VALID,149,VALID,0.504911,
2002-06-14, 03:20:00,VALID,915.779,VALID,0,VALID,96.0278,VALID,-0.0849042,VALID,18.7668,VALID,147,VALID,0.548483,
2002-06-14, 03:21:00,VALID,915.778,VALID,0,VALID,96.0494,VALID,-0.101885,VALID,18.7576,VALID,146,VALID,0.450977,
2002-06-14, 03:22:00,VALID,915.776,VALID,0,VALID,96.0837,VALID,-0.0849042,VALID,18.7638,VALID,152,VALID,0.432765,
2002-06-14, 03:23:00,VALID,915.776,VALID,0,VALID,96.0977,VALID,-0.101885,VALID,18.7666,VALID,151,VALID,0.164955,
2002-06-14, 03:24:00,VALID,915.763,VALID,0,VALID,96.1002,VALID,-0.0849042,VALID,18.7728,VALID,139,VALID,0,
2002-06-14, 03:25:00,VALID,915.772,VALID,0,VALID,95.9833,VALID,-0.0679233,VALID,18.7724,VALID,123,VALID,0,
2002-06-14, 03:26:00,VALID,915.765,VALID,0,VALID,95.8968,VALID,0,VALID,18.7654,VALID,123,VALID,0,
2002-06-14, 03:27:00,VALID,915.765,VALID,0,VALID,96.0926,VALID,0.0169808,VALID,18.7428,VALID,123,VALID,0.116406,
2002-06-14, 03:28:00,VALID,915.765,VALID,0,VALID,96.1358,VALID,0.0169808,VALID,18.7493,VALID,123,VALID,0.0632102,
2002-06-14, 03:29:00,VALID,915.766,VALID,0,VALID,96.1753,VALID,0.0339617,VALID,18.7594,VALID,123,VALID,0,
2002-06-14, 03:30:00,VALID,915.782,VALID,0,VALID,96.2185,VALID,0,VALID,18.7691,VALID,123,VALID,0,
2002-06-14, 03:31:00,VALID,915.772,VALID,0,VALID,96.277,VALID,0,VALID,18.7659,VALID,123,VALID,0.0595982,
2002-06-14, 03:32:00,VALID,915.784,VALID,0,VALID,96.3151,VALID,0.0169808,VALID,18.759,VALID,123,VALID,0.0454963,
2002-06-14, 03:33:00,VALID,915.799,VALID,0,VALID,96.3787,VALID,0.0169808,VALID,18.7749,VALID,123,VALID,0,